Weather History for Winnemucca, NV

Change the Weather History Date:

Friday, May 9, 2014

  Actual Average Record
Temperature  
Mean Temperature 55 °F 53 °F  
Max Temperature 66 °F 70 °F 87 °F (1940)
Min Temperature 44 °F 36 °F 20 °F (1950)
Degree Days  
Heating Degree Days 10 12  
Month to date heating degree days 101 118  
Since 1 July heating degree days 5988 5998  
Cooling Degree Days 0 0  
Month to date cooling degree days 0 0  
Year to date cooling degree days 0 0  
Growing Degree Days 5 (Base 50)    
Moisture  
Dew Point 32 °F    
Average Humidity 54    
Maximum Humidity 86    
Minimum Humidity 21    
Precipitation  
Precipitation 0.05 in 0.04 in 0.59 in (2003)
Month to date precipitation 0.53 0.34  
Year to date precipitation 3.71 3.59  
Snow  
Snow 0.00 in 0.00 in 3.30 in (1896)
Month to date snowfall 0.0 0.1  
Since 1 July snowfall 23.4 20.9  
Snow Depth 0.00 in    
Sea Level Pressure  
Sea Level Pressure 29.90 in    
Wind  
Wind Speed 12 mph (West)    
Max Wind Speed 26 mph    
Max Gust Speed 34 mph    
Visibility 10 miles    
Events Rain    
T = Trace of Precipitation, MM = Missing Value Source: NWS Daily Summary

Daily Weather History Graph

Daily Weather History Graph

Search for Another Location

Airport:

Trip Planner

Search our weather history database for the weather conditions in past years. The results will help you decide how hot, cold, wet, or windy it might be!

Date:

Astronomy

May. 09, 2014 Rise Set
Actual Time 5:39 AM PDT 7:56 PM PDT
Civil Twilight 5:09 AM PDT 8:26 PM PDT
Nautical Twilight 4:31 AM PDT 9:04 PM PDT
Astronomical Twilight 3:50 AM PDT 9:46 PM PDT
Moon 2:56 PM PDT (5/9) 2:46 AM PDT (5/9)
Length of Visible Light 15h 17m
Length of Day
14h 16m
Waxing Gibbous, 74% of the Moon is Illuminated
May 9
Waxing Gibbous
May 14
Full
May 21
Last Quarter
May 28
New
Jun 5
First Quarter

Hourly Weather History & Observations

Time (PDT) Temp. Windchill Dew Point Humidity Pressure Visibility Wind Dir Wind Speed Gust Speed Precip Events Conditions
12:56 AM 48.9 °F - 43.0 °F 80% 29.83 in 10.0 mi SSW 4.6 mph - 0.00 in Rain Light Rain
1:56 AM 51.1 °F - 39.9 °F 66% 29.81 in 10.0 mi SW 16.1 mph - 0.00 in   Overcast
2:56 AM 46.9 °F - 43.0 °F 86% 29.83 in 10.0 mi Calm Calm - 0.00 in   Mostly Cloudy
3:56 AM 46.0 °F 39.3 °F 44.1 °F 93% 29.88 in 6.0 mi West 16.1 mph 25.3 mph 0.02 in Rain Rain
4:56 AM 46.0 °F - 43.0 °F 89% 29.89 in 10.0 mi Calm Calm - 0.03 in   Overcast
5:56 AM 45.0 °F 40.1 °F 39.0 °F 80% 29.91 in 10.0 mi West 9.2 mph - N/A   Scattered Clouds
6:56 AM 46.0 °F 43.9 °F 39.9 °F 79% 29.94 in 10.0 mi WNW 4.6 mph - N/A   Overcast
7:56 AM 48.9 °F - 37.9 °F 66% 29.94 in 10.0 mi West 10.4 mph - N/A   Mostly Cloudy
8:56 AM 50.0 °F - 36.0 °F 59% 29.97 in 10.0 mi West 9.2 mph - N/A   Overcast
9:56 AM 53.1 °F - 37.0 °F 55% 29.97 in 10.0 mi WNW 12.7 mph - N/A   Overcast
10:56 AM 54.0 °F - 35.1 °F 49% 29.96 in 10.0 mi West 11.5 mph - N/A   Overcast
11:56 AM 59.0 °F - 35.1 °F 41% 29.94 in 10.0 mi West 13.8 mph - N/A   Mostly Cloudy
12:56 PM 60.1 °F - 30.9 °F 33% 29.91 in 10.0 mi West 17.3 mph 25.3 mph N/A   Partly Cloudy
1:56 PM 61.0 °F - 28.9 °F 30% 29.90 in 10.0 mi West 16.1 mph 27.6 mph N/A   Scattered Clouds
2:56 PM 64.0 °F - 25.0 °F 23% 29.87 in 10.0 mi West 20.7 mph 33.4 mph N/A   Partly Cloudy
3:56 PM 62.1 °F - 25.0 °F 24% 29.87 in 10.0 mi West 18.4 mph 26.5 mph N/A   Mostly Cloudy
4:56 PM 64.9 °F - 24.1 °F 21% 29.84 in 10.0 mi West 19.6 mph 28.8 mph N/A   Mostly Cloudy
5:56 PM 63.0 °F - 25.0 °F 24% 29.85 in 10.0 mi WSW 15.0 mph 29.9 mph N/A   Partly Cloudy
6:56 PM 62.1 °F - 23.0 °F 22% 29.84 in 10.0 mi West 17.3 mph - N/A   Partly Cloudy
7:56 PM 57.0 °F - 21.0 °F 25% 29.87 in 10.0 mi West 12.7 mph - N/A   Clear
8:56 PM 51.1 °F - 21.9 °F 32% 29.91 in 10.0 mi WSW 5.8 mph - N/A   Clear
9:56 PM 52.0 °F - 21.9 °F 31% 29.92 in 10.0 mi West 12.7 mph - N/A   Clear
10:56 PM 50.0 °F - 23.0 °F 35% 29.94 in 10.0 mi West 10.4 mph - N/A   Clear
11:56 PM 48.9 °F - 24.1 °F 38% 29.94 in 10.0 mi West 15.0 mph - N/A   Clear